NOZ2274 LJLJ-LIMJ

Flight info

Callsign NOZ2274
Flight time 0h 53m
Altitude 35000
Route BASTA DCT TES DCT KIZAF DCT OSBUL DCT GOLAS
Aircraft B738/M-SDE2E3FGHIRWXY/LB1

Departure

Time 2026-04-29 18:14
Airport Ljubljana Jože Pučnik Airport (LJLJ)

Arrival

Time 2026-04-29 19:07
Airport Genoa Cristoforo Colombo Airport (LIMJ)
Time Latitude Longitude Altitude Speed Heading
2026-04-29 17:59 46.23194 14.45090 1260 ft 0 kts 36°
2026-04-29 18:06 46.23193 14.45089 1259 ft 2 kts 36°
2026-04-29 18:06 46.23177 14.45072 1262 ft 3 kts 37°
2026-04-29 18:06 46.23162 14.45052 1261 ft 3 kts 64°
2026-04-29 18:06 46.23158 14.45025 1262 ft 3 kts 104°
2026-04-29 18:07 46.23165 14.45001 1265 ft 3 kts 126°
2026-04-29 18:07 46.23167 14.44996 1266 ft 3 kts 126°
2026-04-29 18:09 46.23161 14.45008 1259 ft 5 kts 126°
2026-04-29 18:10 46.23133 14.45063 1262 ft 8 kts 127°
2026-04-29 18:10 46.23094 14.45138 1263 ft 11 kts 127°
2026-04-29 18:10 46.23034 14.45185 1253 ft 13 kts 199°
2026-04-29 18:10 46.22970 14.45085 1249 ft 14 kts 265°
2026-04-29 18:11 46.23015 14.44966 1253 ft 13 kts 306°
2026-04-29 18:11 46.23068 14.44860 1252 ft 13 kts 306°
2026-04-29 18:11 46.23122 14.44750 1249 ft 15 kts 305°
2026-04-29 18:11 46.23193 14.44610 1250 ft 21 kts 306°
2026-04-29 18:12 46.23297 14.44406 1256 ft 27 kts 307°
2026-04-29 18:12 46.23382 14.44240 1252 ft 15 kts 306°
2026-04-29 18:12 46.23362 14.44098 1250 ft 17 kts 207°
2026-04-29 18:12 46.23246 14.44090 1248 ft 16 kts 169°
2026-04-29 18:13 46.23156 14.44230 1255 ft 37 kts 126°
2026-04-29 18:13 46.22864 14.44799 1249 ft 104 kts 126°
2026-04-29 18:13 46.22311 14.45874 1259 ft 159 kts 127°
2026-04-29 18:13 46.21619 14.47196 1835 ft 167 kts 127°
2026-04-29 18:14 46.20924 14.48533 2698 ft 165 kts 127°
2026-04-29 18:14 46.20196 14.49911 3020 ft 185 kts 124°
2026-04-29 18:14 46.19407 14.51446 3460 ft 193 kts 122°
2026-04-29 18:14 46.18586 14.53095 3626 ft 212 kts 122°
2026-04-29 18:15 46.17694 14.54856 3950 ft 224 kts 123°
2026-04-29 18:15 46.16737 14.56704 4427 ft 233 kts 123°
2026-04-29 18:15 46.15684 14.58515 5054 ft 240 kts 138°
2026-04-29 18:15 46.14133 14.59480 5634 ft 251 kts 170°
2026-04-29 18:16 46.12377 14.59132 6178 ft 264 kts 202°
2026-04-29 18:16 46.10921 14.57395 6473 ft 284 kts 238°
2026-04-29 18:16 46.10120 14.54818 7031 ft 288 kts 251°
2026-04-29 18:16 46.09451 14.52085 7695 ft 290 kts 252°
2026-04-29 18:17 46.08797 14.49329 8381 ft 292 kts 252°
2026-04-29 18:17 46.08133 14.46555 9092 ft 294 kts 252°
2026-04-29 18:17 46.07455 14.43770 9824 ft 296 kts 252°
2026-04-29 18:17 46.06759 14.40959 10472 ft 300 kts 251°
2026-04-29 18:18 46.06049 14.38134 11232 ft 299 kts 253°
2026-04-29 18:18 46.05343 14.35353 12163 ft 293 kts 252°
2026-04-29 18:18 46.04638 14.32592 12915 ft 293 kts 255°
2026-04-29 18:18 46.04230 14.29773 13780 ft 287 kts 265°
2026-04-29 18:19 46.04041 14.26893 14363 ft 295 kts 268°
2026-04-29 18:19 46.03860 14.23838 14485 ft 317 kts 269°
2026-04-29 18:19 46.03754 14.20571 14663 ft 336 kts 270°
2026-04-29 18:19 46.03683 14.17144 14995 ft 349 kts 270°
2026-04-29 18:20 46.03617 14.13604 15468 ft 357 kts 270°
2026-04-29 18:20 46.03552 14.09997 16045 ft 360 kts 270°
2026-04-29 18:20 46.03486 14.06378 16747 ft 361 kts 270°
2026-04-29 18:20 46.03419 14.02828 17567 ft 360 kts 271°
2026-04-29 18:21 46.03120 13.99195 17924 ft 373 kts 258°
2026-04-29 18:21 46.02320 13.95613 18482 ft 379 kts 251°
2026-04-29 18:21 46.01247 13.92119 18969 ft 383 kts 249°
2026-04-29 18:21 46.00162 13.88616 19529 ft 384 kts 249°
2026-04-29 18:22 45.99074 13.85088 20100 ft 385 kts 249°
2026-04-29 18:22 45.97985 13.81557 20666 ft 386 kts 250°
2026-04-29 18:22 45.96891 13.78019 21203 ft 388 kts 250°
2026-04-29 18:22 45.95794 13.74472 21727 ft 390 kts 250°
2026-04-29 18:23 45.94684 13.70896 22246 ft 392 kts 250°
2026-04-29 18:23 45.93572 13.67318 22749 ft 393 kts 250°
2026-04-29 18:23 45.92452 13.63722 23261 ft 395 kts 250°
2026-04-29 18:23 45.91341 13.60159 23724 ft 397 kts 250°
2026-04-29 18:24 45.90195 13.56490 24124 ft 399 kts 250°
2026-04-29 18:24 45.89056 13.52849 24532 ft 400 kts 250°
2026-04-29 18:24 45.87923 13.49232 24846 ft 404 kts 250°
2026-04-29 18:24 45.86765 13.45539 25175 ft 407 kts 250°
2026-04-29 18:25 45.85604 13.41842 25565 ft 408 kts 250°
2026-04-29 18:25 45.84431 13.38116 25954 ft 409 kts 250°
2026-04-29 18:25 45.83250 13.34370 26311 ft 411 kts 250°
2026-04-29 18:25 45.82070 13.30630 26640 ft 412 kts 250°
2026-04-29 18:26 45.80883 13.26872 26993 ft 414 kts 250°
2026-04-29 18:26 45.79694 13.23117 27298 ft 415 kts 250°
2026-04-29 18:26 45.78492 13.19320 27515 ft 420 kts 250°
2026-04-29 18:26 45.77293 13.15541 27805 ft 422 kts 250°
2026-04-29 18:27 45.76076 13.11711 28145 ft 422 kts 250°
2026-04-29 18:27 45.74864 13.07881 28443 ft 424 kts 250°
2026-04-29 18:27 45.73646 13.04023 28766 ft 425 kts 250°
2026-04-29 18:27 45.72430 13.00171 29109 ft 425 kts 251°
2026-04-29 18:28 45.71215 12.96330 29566 ft 423 kts 251°
2026-04-29 18:28 45.70005 12.92512 30084 ft 419 kts 251°
2026-04-29 18:28 45.68802 12.88725 30497 ft 417 kts 251°
2026-04-29 18:28 45.67603 12.84951 30795 ft 417 kts 251°
2026-04-29 18:29 45.66404 12.81181 31067 ft 417 kts 251°
2026-04-29 18:29 45.65592 12.78631 31295 ft 416 kts 251°
2026-04-29 18:29 45.64002 12.73645 31660 ft 416 kts 251°
2026-04-29 18:29 45.62800 12.69882 31920 ft 417 kts 250°
2026-04-29 18:30 45.61596 12.66122 32258 ft 415 kts 250°
2026-04-29 18:30 45.60396 12.62383 32627 ft 413 kts 250°
2026-04-29 18:30 45.59200 12.58660 32960 ft 412 kts 250°
2026-04-29 18:30 45.58005 12.54943 33203 ft 412 kts 250°
2026-04-29 18:31 45.56807 12.51223 33465 ft 412 kts 250°
2026-04-29 18:31 45.55610 12.47510 33822 ft 411 kts 250°
2026-04-29 18:31 45.54415 12.43811 34156 ft 409 kts 250°
2026-04-29 18:31 45.53220 12.40116 34362 ft 410 kts 250°
2026-04-29 18:32 45.52022 12.36412 34512 ft 411 kts 250°
2026-04-29 18:32 45.49612 12.28982 34838 ft 414 kts 250°
2026-04-29 18:32 45.48413 12.25295 34979 ft 415 kts 250°
2026-04-29 18:33 45.47195 12.21555 35117 ft 417 kts 249°
2026-04-29 18:33 45.45972 12.17802 35118 ft 418 kts 249°
2026-04-29 18:33 45.43510 12.10277 35105 ft 414 kts 249°
2026-04-29 18:34 45.41483 12.04097 35125 ft 413 kts 249°
2026-04-29 18:34 45.38651 11.95480 35130 ft 413 kts 249°
2026-04-29 18:35 45.36211 11.88076 35132 ft 413 kts 249°
2026-04-29 18:35 45.33768 11.80685 35125 ft 414 kts 249°
2026-04-29 18:36 45.31309 11.73264 35137 ft 416 kts 249°
2026-04-29 18:36 45.28845 11.65853 35131 ft 418 kts 249°
2026-04-29 18:37 45.26341 11.58341 35124 ft 421 kts 249°
2026-04-29 18:37 45.23827 11.50821 35128 ft 423 kts 249°
2026-04-29 18:38 45.21308 11.43310 35123 ft 424 kts 249°
2026-04-29 18:38 45.18749 11.35700 35116 ft 425 kts 249°
2026-04-29 18:39 45.16214 11.28183 35037 ft 427 kts 249°
2026-04-29 18:39 45.14933 11.24391 34732 ft 427 kts 249°
2026-04-29 18:39 45.13654 11.20616 34485 ft 422 kts 249°
2026-04-29 18:40 45.12388 11.16884 34247 ft 419 kts 249°
2026-04-29 18:40 45.11126 11.13169 34005 ft 419 kts 249°
2026-04-29 18:40 45.09862 11.09448 33717 ft 418 kts 249°
2026-04-29 18:40 45.08601 11.05740 33011 ft 418 kts 248°
2026-04-29 18:41 45.04821 10.94661 31192 ft 414 kts 248°
2026-04-29 18:41 45.03570 10.91009 30717 ft 410 kts 248°
2026-04-29 18:42 45.02747 10.88607 30410 ft 408 kts 248°
2026-04-29 18:42 45.01513 10.85012 29915 ft 405 kts 248°
2026-04-29 18:42 45.00291 10.81455 29402 ft 401 kts 248°
2026-04-29 18:42 44.99078 10.77930 28949 ft 396 kts 248°
2026-04-29 18:43 44.97880 10.74450 28470 ft 392 kts 248°
2026-04-29 18:43 44.96693 10.71005 28018 ft 389 kts 248°
2026-04-29 18:43 44.95513 10.67586 27526 ft 385 kts 248°
2026-04-29 18:43 44.94340 10.64193 27090 ft 385 kts 248°
2026-04-29 18:44 44.93150 10.60745 26629 ft 396 kts 247°
2026-04-29 18:44 44.91930 10.57216 26145 ft 403 kts 247°
2026-04-29 18:44 44.90701 10.53674 25651 ft 399 kts 247°
2026-04-29 18:44 44.89483 10.50173 25165 ft 396 kts 247°
2026-04-29 18:45 44.88272 10.46697 24701 ft 393 kts 247°
2026-04-29 18:45 44.87072 10.43252 24244 ft 390 kts 247°
2026-04-29 18:45 44.85879 10.39829 23787 ft 387 kts 246°
2026-04-29 18:45 44.84693 10.36430 23256 ft 385 kts 246°
2026-04-29 18:46 44.83513 10.33056 22751 ft 382 kts 246°
2026-04-29 18:46 44.82341 10.29765 22226 ft 379 kts 244°
2026-04-29 18:46 44.80901 10.26649 21799 ft 378 kts 236°
2026-04-29 18:46 44.79313 10.23707 21347 ft 376 kts 235°
2026-04-29 18:47 44.77717 10.20812 20913 ft 373 kts 235°
2026-04-29 18:47 44.76130 10.17938 20465 ft 371 kts 235°
2026-04-29 18:47 44.74560 10.15077 20032 ft 369 kts 235°
2026-04-29 18:47 44.73003 10.12225 19591 ft 366 kts 235°
2026-04-29 18:48 44.71454 10.09378 19171 ft 365 kts 235°
2026-04-29 18:48 44.69920 10.06550 18754 ft 363 kts 235°
2026-04-29 18:48 44.68385 10.03721 18324 ft 362 kts 235°
2026-04-29 18:48 44.66863 10.00915 17839 ft 361 kts 235°
2026-04-29 18:49 44.65345 9.98118 17386 ft 359 kts 235°
2026-04-29 18:49 44.63833 9.95336 16944 ft 357 kts 235°
2026-04-29 18:49 44.62329 9.92571 16521 ft 355 kts 235°
2026-04-29 18:49 44.60836 9.89829 16098 ft 353 kts 235°
2026-04-29 18:50 44.59349 9.87100 15686 ft 350 kts 235°
2026-04-29 18:50 44.57868 9.84385 15274 ft 348 kts 234°
2026-04-29 18:50 44.56406 9.81707 14865 ft 345 kts 234°
2026-04-29 18:50 44.54967 9.79072 14474 ft 343 kts 234°
2026-04-29 18:51 44.53516 9.76419 14087 ft 341 kts 234°
2026-04-29 18:51 44.52072 9.73780 13664 ft 340 kts 234°
2026-04-29 18:51 44.50638 9.71163 13244 ft 338 kts 234°
2026-04-29 18:51 44.49214 9.68558 12817 ft 336 kts 234°
2026-04-29 18:52 44.47793 9.65967 12418 ft 334 kts 234°
2026-04-29 18:52 44.46389 9.63414 12231 ft 325 kts 233°
2026-04-29 18:52 44.44946 9.61042 12082 ft 317 kts 224°
2026-04-29 18:52 44.43261 9.59128 11957 ft 308 kts 218°
2026-04-29 18:53 44.41551 9.57385 11830 ft 300 kts 217°
2026-04-29 18:53 44.39886 9.55681 11690 ft 292 kts 218°
2026-04-29 18:53 44.38281 9.53994 11585 ft 284 kts 218°
2026-04-29 18:53 44.36751 9.52362 11469 ft 277 kts 219°
2026-04-29 18:54 44.35242 9.50741 11351 ft 270 kts 219°
2026-04-29 18:54 44.33772 9.49160 11157 ft 266 kts 218°
2026-04-29 18:54 44.32306 9.47592 10973 ft 262 kts 218°
2026-04-29 18:54 44.30881 9.46070 10861 ft 255 kts 218°
2026-04-29 18:55 44.29500 9.44605 10786 ft 242 kts 215°
2026-04-29 18:55 44.27970 9.43804 10624 ft 232 kts 182°
2026-04-29 18:55 44.26413 9.44200 10410 ft 228 kts 156°
2026-04-29 18:55 44.25076 9.45352 10194 ft 225 kts 142°
2026-04-29 18:56 44.23828 9.46680 9961 ft 225 kts 142°
2026-04-29 18:56 44.22563 9.47963 9696 ft 225 kts 153°
2026-04-29 18:56 44.21064 9.48299 9337 ft 222 kts 193°
2026-04-29 18:56 44.19727 9.47296 8962 ft 221 kts 223°
2026-04-29 18:57 44.18727 9.45671 8587 ft 221 kts 233°
2026-04-29 18:57 44.17802 9.43935 8147 ft 226 kts 233°
2026-04-29 18:57 44.16853 9.42162 7718 ft 230 kts 233°
2026-04-29 18:57 44.16104 9.40210 7340 ft 231 kts 259°
2026-04-29 18:58 44.16233 9.38049 6980 ft 229 kts 294°
2026-04-29 18:58 44.17157 9.36283 6649 ft 225 kts 320°
2026-04-29 18:58 44.18393 9.34959 6382 ft 221 kts 325°
2026-04-29 18:58 44.19622 9.33690 6116 ft 216 kts 325°
2026-04-29 18:59 44.20823 9.32441 6008 ft 216 kts 324°
2026-04-29 18:59 44.22040 9.31172 6009 ft 220 kts 324°
2026-04-29 18:59 44.23261 9.29892 6006 ft 224 kts 324°
2026-04-29 18:59 44.24499 9.28587 5997 ft 220 kts 323°
2026-04-29 19:00 44.25699 9.27319 5981 ft 212 kts 323°
2026-04-29 19:00 44.26867 9.26084 5984 ft 209 kts 323°
2026-04-29 19:00 44.28036 9.24848 5993 ft 211 kts 323°
2026-04-29 19:00 44.29149 9.23470 5784 ft 218 kts 314°
2026-04-29 19:01 44.30177 9.21913 5517 ft 216 kts 313°
2026-04-29 19:01 44.31168 9.20406 5273 ft 211 kts 313°
2026-04-29 19:01 44.32152 9.18925 5044 ft 204 kts 314°
2026-04-29 19:01 44.33121 9.17478 4814 ft 200 kts 314°
2026-04-29 19:02 44.34044 9.16075 4505 ft 198 kts 308°
2026-04-29 19:02 44.34474 9.14954 4434 ft 192 kts 290°
2026-04-29 19:02 44.35054 9.12543 4111 ft 201 kts 289°
2026-04-29 19:02 44.35477 9.10688 3831 ft 199 kts 288°
2026-04-29 19:03 44.35880 9.08848 3551 ft 197 kts 289°
2026-04-29 19:03 44.36276 9.07026 3278 ft 194 kts 289°
2026-04-29 19:03 44.36662 9.05237 3012 ft 191 kts 288°
2026-04-29 19:03 44.37045 9.03469 2748 ft 189 kts 288°
2026-04-29 19:04 44.37425 9.01716 2480 ft 187 kts 288°
2026-04-29 19:04 44.37797 9.00005 2213 ft 181 kts 288°
2026-04-29 19:04 44.38149 8.98382 1970 ft 172 kts 288°
2026-04-29 19:04 44.38490 8.96813 1743 ft 167 kts 288°
2026-04-29 19:05 44.38831 8.95249 1515 ft 163 kts 287°
2026-04-29 19:05 44.39156 8.93825 1430 ft 147 kts 289°
2026-04-29 19:05 44.39492 8.92553 1256 ft 136 kts 288°
2026-04-29 19:05 44.39754 8.91288 994 ft 131 kts 285°
2026-04-29 19:06 44.40012 8.90048 799 ft 137 kts 288°
2026-04-29 19:06 44.40284 8.88758 637 ft 142 kts 285°
2026-04-29 19:06 44.40814 8.86107 137 ft 137 kts 285°
2026-04-29 19:07 44.41058 8.84879 17 ft 119 kts 285°
2026-04-29 19:07 44.41179 8.84267 22 ft 78 kts 285°
2026-04-29 19:07 44.41276 8.83817 19 ft 10 kts 322°
2026-04-29 19:07 44.41338 8.83758 18 ft 12 kts 335°
2026-04-29 19:08 44.41412 8.83803 18 ft 14 kts 76°
2026-04-29 19:08 44.41397 8.83947 20 ft 16 kts 104°
2026-04-29 19:08 44.41365 8.84115 16 ft 20 kts 104°
2026-04-29 19:08 44.41326 8.84311 18 ft 21 kts 105°
2026-04-29 19:09 44.41323 8.84411 18 ft 8 kts 72°
2026-04-29 19:09 44.41353 8.84475 17 ft 8 kts 53°
2026-04-29 19:09 44.41387 8.84539 17 ft 9 kts 52°
2026-04-29 19:09 44.41437 8.84628 17 ft 14 kts 53°
2026-04-29 19:10 44.41499 8.84741 17 ft 14 kts 52°
2026-04-29 19:10 44.41545 8.84826 17 ft 9 kts 52°
2026-04-29 19:10 44.41550 8.84896 17 ft 7 kts 104°
2026-04-29 19:10 44.41546 8.84923 17 ft 1 kts 104°
2026-04-29 19:11 44.41544 8.84932 17 ft 1 kts 105°
2026-04-29 19:11 44.41539 8.84953 19 ft 2 kts 106°